This is the latest recevied weather packets stored in our database for station/object HA2SKA-1. If no packets are shown the sender has not sent any weather packets the latest 10 day(s).
| Time | Temp. | Humidity | Pressure | Rain* | Wind** | Luminosity | Snow |
|---|---|---|---|---|---|---|---|
| 1787919617 | 35° C | 43% | 1016.4 hPa | - | - | - | - |
| 1787918711 | 34.44° C | 42% | 1016.8 hPa | - | - | - | - |
| 1787917811 | 33.33° C | 43% | 1017.2 hPa | - | - | - | - |
| 1787916911 | 34.44° C | 42% | 1017.3 hPa | - | - | - | - |
| 1787916011 | 33.89° C | 41% | 1017 hPa | - | - | - | - |
| 1787915111 | 33.89° C | 41% | 1017.3 hPa | - | - | - | - |
| 1787914211 | 32.78° C | 41% | 1017.6 hPa | - | - | - | - |
| 1787913311 | 32.78° C | 41% | 1018.1 hPa | - | - | - | - |
| 1787912411 | 32.78° C | 41% | 1018.2 hPa | - | - | - | - |
| 1787911511 | 32.22° C | 41% | 1018.3 hPa | - | - | - | - |
| 1787910611 | 31.67° C | 43% | 1018.2 hPa | - | - | - | - |
| 1787909710 | 31.67° C | 44% | 1018.4 hPa | - | - | - | - |
| 1787908810 | 30.56° C | 46% | 1018.5 hPa | - | - | - | - |
| 1787907910 | 30.56° C | 47% | 1018.8 hPa | - | - | - | - |
| 1787907013 | 30.56° C | 49% | 1018.9 hPa | - | - | - | - |
| 1787906110 | 30.56° C | 48% | 1018.9 hPa | - | - | - | - |
| 1787905210 | 31.11° C | 48% | 1019 hPa | - | - | - | - |
| 1787904310 | 30° C | 50% | 1019.3 hPa | - | - | - | - |
| 1787903410 | 30° C | 50% | 1019.1 hPa | - | - | - | - |
| 1787902510 | 28.89° C | 52% | 1019.2 hPa | - | - | - | - |
| 1787901610 | 29.44° C | 53% | 1019.4 hPa | - | - | - | - |
| 1787900709 | 28.33° C | 55% | 1019.4 hPa | - | - | - | - |
| 1787899809 | 27.22° C | 59% | 1019.2 hPa | - | - | - | - |
| 1787898909 | 26.67° C | 61% | 1018.9 hPa | - | - | - | - |
| 1787898009 | 25.56° C | 63% | 1019 hPa | - | - | - | - |
* Rain since midnight (hover to see other rain measurements)
** Current wind speed in m/s (hover to see current wind gust speed)